Regional Weather Roundup
Issued by NWS Kansas City/Pleasant Hill, MO

Home | Current Version | Previous Version | Graphics & Text | Print | Product List | Glossary Off
Versions: 1 2 3 4 5 6 7 8 9 10 11 12 13 14 15 16 17 18 19 20 21 22 23 24 25 26 27 28 29 30 31 32 33 34 35 36 37 38 39 40 41 42 43 44 45 46 47 48 49 50

353
ASUS43 KEAX 101310
RWREAX

WEATHER ROUNDUP FOR EASTERN KANSAS AND NORTHWEST MISSOURI
NATIONAL WEATHER SERVICE KANSAS CITY/PLEASANT HILL MO
700 AM CST WED FEB 10 2016

KSZ040-057-103>105-MOZ028-029-037-043-101400-
...KANSAS CITY METROPOLITAN AREA...

CITY           SKY/WX    TMP DP  RH WIND       PRES   REMARKS
K.C. INTL      FLURRIES  24  15  68 S5        30.14F WCI  18
K.C. DOWNTOWN  CLOUDY    27  14  58 SW5       30.17F WCI  22
LEES SUMMIT    CLOUDY    24  14  65 S5        30.15F WCI  18
OLATHE - IXD   CLOUDY    24  14  65 S8        30.15F WCI  15
OLATHE - OJC   CLOUDY    23  13  65 S6        30.15F WCI  16
LAWRENCE       CLOUDY    24  17  74 S6        30.15F WCI  17

$$

MOZ001>008-011>017-020>025-030>033-038>040-044>046-053-054-101400-
...NORTHERN AND CENTRAL MISSOURI...

CITY           SKY/WX    TMP DP  RH WIND       PRES   REMARKS
ST. JOSEPH     FLURRIES  25  16  68 S7        30.13F WCI  17
MOSBY          CLOUDY    27  16  63 CALM      30.16F
WARRENSBURG    CLOUDY    23  16  74 CALM      30.18S
WHITEMAN AFB   CLOUDY    21  14  75 CALM      30.16S
CLINTON          N/A     27  18  69 SW7       30.19F WCI  19
SEDALIA        CLOUDY    20  12  71 W5        30.19R WCI  13
WARSAW         NOT AVBL
CHILLICOTHE      N/A     20  15  81 CALM      30.16F
KIRKSVILLE     CLOUDY    14   8  77 CALM      30.14S

$$

MOZ041-047>049-056>058-063>065-088>090-097-101400-
...EASTERN AND SOUTHERN MISSOURI...

CITY           SKY/WX    TMP DP  RH WIND       PRES   REMARKS
ST. LOUIS INTL MOCLDY    15   6  67 W9        30.16S WCI   3
SPIRIT OF STL  PTCLDY    13   7  77 W7        30.18R WCI   3
COLUMBIA       CLOUDY    15   8  73 CALM      30.16F
JEFFERSON CITY CLOUDY    17   9  70 CALM      30.20F
ROLLA          CLOUDY    14   8  77 W5        30.13F WCI   6
OSAGE BEACH    MOCLDY    16   7  67 CALM      30.17F
SPRINGFIELD    MOCLDY    19  10  68 SW5       30.18S WCI  12
BRANSON        CLEAR     21   9  58 W6        30.22F WCI  14
JOPLIN         CLOUDY    22  12  65 SW8       30.24F WCI  12
WEST PLAINS    CLEAR     16   6  65 CALM      30.17F

$$

IAZ060-094-KSZ022-034>040-054-083-096-NEZ052-066-093-101400-
...KANSAS...SOUTHEAST NEBRASKA AND IOWA...

CITY           SKY/WX    TMP DP  RH WIND       PRES   REMARKS
TOPEKA         PTCLDY    26  13  57 S5        30.15F WCI  20
MANHATTAN      CLEAR     27  13  55 S9        30.08S WCI  18
EMPORIA        CLEAR     24  11  57 S15       30.13F WCI  11
CHANUTE        MOCLDY    21  14  74 S8        30.22F WCI  11
WICHITA        CLEAR     25  16  68 S12       30.14F WCI  14
OMAHA          CLOUDY    25  19  78 SE10      30.04F WCI  15
LINCOLN        CLOUDY    27  17  66 S10       30.01F WCI  17
FALLS CITY     CLOUDY    26  17  68 S6        30.08F WCI  19
LAMONI         CLOUDY    20  14  77 S3        30.10F
DES MOINES     LGT SNOW  16   7  67 CALM      30.12F

$$





USA.gov is the U.S. government's official web portal to all federal, state and local government web resources and services.